[[{"header":{"parameterUnit":"m.s-1","parameterCategory":1,"la1":30.2991,"la2":30.254,"lo1":-89.0895,"lo2":-89.0444,"dy":0.0017,"dx":0.0017,"nx":28,"ny":28,"refTime":"2024-03-18T03:00:00:Z","depth":0,"parameterNumber":2,"parameterNumberName":"U-component_of_WINDS"},"data":[0,0,0,0,0,0,0,0,0,0,0,0,0,0,0,0,0,0,0,0,0,0,0,0,0,0,0,0,0,0,0,0,0,0,0,0,0,0,0,0,0,0,0,0,0,0,0,0,0,0,0,0,0,0,0,0,0,0,-0.5419,-0.5419,0,-0.5396,-0.5396,-0.5396,-0.5342,-0.5341,-0.534,-0.5339,-0.5319,-0.5319,-0.532,0,0,0,0,0,0,0,0,0,0,0,0,0,-0.5417,-0.5417,-0.5419,-0.5419,-0.5418,-0.5397,-0.5396,-0.5396,-0.5342,-0.5341,-0.534,-0.5338,-0.5318,-0.5319,-0.532,0,0,0,0,0,0,0,0,0,0,0,0,0,-0.5409,-0.5418,-0.5419,-0.5389,-0.5386,-0.5397,-0.5396,-0.5396,-0.5343,-0.5341,-0.5339,-0.5338,-0.5318,-0.5319,-0.532,-0.5358,0,0,-0.5322,-0.5322,0,0,0,0,0,0,0,0,-0.5409,-0.5409,-0.5394,-0.5391,-0.5388,-0.537,-0.5388,-0.5383,-0.5343,-0.5359,-0.5339,-0.5337,-0.5337,-0.5336,-0.5336,-0.5357,-0.5356,-0.5322,-0.5323,-0.5323,-0.5323,0,0,0,0,0,0,0,-0.541,-0.541,-0.541,-0.5393,-0.539,-0.5377,-0.5374,-0.5387,-0.5358,-0.5358,-0.5354,-0.5352,-0.5335,-0.5335,-0.5335,-0.5356,-0.5322,-0.5323,-0.5323,-0.5323,-0.5409,-0.5411,0,0,0,0,0,0,-0.5415,-0.541,-0.5411,-0.5409,-0.5394,-0.5379,-0.5375,-0.5378,-0.5358,-0.5353,-0.5353,-0.5349,-0.5335,-0.5334,-0.5334,-0.5379,-0.5323,-0.5324,-0.5324,-0.5407,-0.5409,-0.5411,0,0,0,0,0,0,-0.5415,-0.5415,-0.5412,-0.5409,-0.5407,-0.538,-0.5384,-0.5378,-0.5378,-0.5354,-0.5349,-0.5358,-0.5334,-0.5333,-0.5353,-0.5378,-0.5324,-0.5325,-0.5405,-0.5408,-0.541,-0.5469,0,0,0,0,0,0,-0.5415,-0.5415,-0.5429,-0.5409,-0.5408,-0.543,-0.5385,-0.5379,-0.5379,-0.5374,-0.5358,-0.5354,-0.5332,-0.5352,-0.5354,-0.5378,-0.5325,-0.5403,-0.5406,-0.541,-0.5465,-0.5473,-0.5481,0,0,0,0,0,-0.5415,-0.5447,-0.543,-0.5431,-0.5425,-0.5432,-0.5431,-0.5405,-0.5381,-0.5396,-0.538,-0.5354,-0.5374,-0.5354,-0.5356,-0.5381,-0.5401,-0.5405,-0.5409,-0.5461,-0.5471,-0.548,0,0,0,0,0,0,-0.5472,-0.5444,-0.5425,-0.5452,-0.5444,-0.5423,-0.544,-0.5417,-0.5416,-0.5412,-0.538,-0.5377,-0.5401,-0.5392,-0.5371,-0.5417,-0.5383,-0.5388,-0.5422,-0.5432,-0.544,-0.5442,-0.5326,0,0,0,0,0,-0.5487,-0.5494,-0.547,-0.5496,-0.5493,-0.5467,-0.5469,-0.545,-0.5441,-0.5438,-0.5424,-0.5418,-0.5422,-0.5426,-0.543,-0.5462,-0.5459,-0.548,-0.5488,-0.5495,-0.55,-0.5518,-0.5527,-0.5425,-0.5425,-0.5425,0,0,-0.5519,-0.5505,-0.5512,-0.5507,-0.5499,-0.5508,-0.5465,-0.5476,-0.5483,-0.544,-0.5458,-0.5448,-0.5438,-0.5465,-0.5476,-0.5458,-0.5527,-0.55,-0.5506,-0.5507,-0.5523,-0.5533,-0.5541,-0.5427,-0.5427,-0.5427,0,0,-0.5583,-0.5573,-0.5593,-0.5586,-0.5574,-0.5557,-0.5562,-0.5543,-0.5535,-0.5552,-0.552,-0.5527,-0.5536,-0.5531,-0.553,-0.5591,-0.5568,-0.5593,-0.5636,-0.5653,-0.5661,-0.5668,-0.5692,-0.5701,-0.5598,-0.5598,-0.5598,0,-0.5625,-0.5637,-0.5607,-0.5621,-0.562,-0.558,-0.5601,-0.5596,-0.5586,-0.5587,-0.5567,-0.5577,-0.5568,-0.5594,-0.5609,-0.5608,-0.5614,-0.5596,-0.5662,-0.5669,-0.5675,-0.5697,-0.5706,-0.5601,-0.5601,-0.56,-0.56,0,-0.569,-0.5699,-0.5717,-0.5708,-0.5709,-0.5726,-0.57,-0.5704,-0.5685,-0.567,-0.5688,-0.5675,-0.5675,-0.568,-0.5661,-0.5703,-0.5692,-0.5668,-0.5634,-0.5689,-0.5709,-0.5717,-0.5606,-0.5605,-0.5604,-0.5603,0,0,-0.579,-0.5764,-0.5771,-0.5767,-0.5751,-0.5757,-0.5773,-0.5772,-0.5778,-0.5772,-0.5786,-0.5794,-0.5771,-0.5769,-0.5749,-0.5765,-0.5816,-0.5738,-0.5738,-0.5755,-0.5863,-0.5883,-0.5893,-0.5799,-0.5801,-0.5802,-0.5865,0,-0.5852,-0.5877,-0.585,-0.5881,-0.5889,-0.5851,-0.5865,-0.5857,-0.5843,-0.5849,-0.5834,-0.5841,-0.5809,-0.5808,-0.5822,-0.5807,-0.5838,-0.5802,-0.5813,-0.5814,-0.5818,-0.5904,-0.5925,-0.5984,-0.5872,-0.5873,-0.5874,0,-0.5927,-0.5924,-0.5956,-0.5938,-0.594,-0.5953,-0.5951,-0.5956,-0.5947,-0.5936,-0.5934,-0.5909,-0.5924,-0.589,-0.5911,-0.5887,-0.589,-0.5883,-0.5885,-0.5887,-0.5849,-0.5909,-0.6003,-0.6013,-0.5886,-0.5885,-0.5884,0,-0.5999,-0.6003,-0.6023,-0.602,-0.5999,-0.6009,-0.6001,-0.599,-0.5991,-0.5989,-0.599,-0.599,-0.5991,-0.5992,-0.5968,-0.5945,-0.5993,-0.5956,-0.5986,-0.5986,-0.5999,-0.5999,-0.6096,-0.5998,-0.5998,-0.5998,-0.5997,0,-0.6071,-0.6093,-0.6055,-0.6067,-0.609,-0.6059,-0.6083,-0.6071,-0.6061,-0.6072,-0.6038,-0.6049,-0.6016,-0.6023,-0.6005,-0.6026,-0.6026,-0.6019,-0.6014,-0.6023,-0.6024,-0.6026,-0.6022,-0.6,-0.5999,-0.5999,-0.5999,0,-0.6156,-0.6132,-0.6151,-0.6129,-0.6124,-0.6143,-0.6124,-0.6136,-0.6119,-0.6132,-0.6134,-0.6108,-0.6115,-0.6091,-0.6094,-0.6081,-0.6113,-0.6101,-0.6117,-0.6114,-0.6145,-0.6144,-0.6249,-0.6262,-0.6153,-0.6154,-0.6155,0,-0.6205,-0.622,-0.62,-0.6204,-0.6198,-0.6205,-0.6206,-0.6176,-0.6179,-0.6169,-0.6182,-0.6185,-0.6187,-0.62,-0.6182,-0.6184,-0.6173,-0.6209,-0.6173,-0.6182,-0.6176,-0.6176,-0.6178,-0.6218,-0.6219,-0.622,-0.6221,0,-0.6295,-0.6282,-0.6284,-0.6283,-0.6285,-0.6283,-0.6278,-0.6283,-0.6251,-0.6256,-0.6262,-0.6263,-0.6266,-0.6271,-0.6269,-0.6262,-0.6237,-0.6232,-0.6239,-0.625,-0.6259,-0.6256,-0.6139,-0.623,-0.6229,-0.6229,-0.6228,-0.6228,-0.6364,-0.6377,-0.6364,-0.6369,-0.6362,-0.6358,-0.6368,-0.6352,-0.6356,-0.6356,-0.6338,-0.6348,-0.6338,-0.6333,-0.6328,-0.6337,-0.632,-0.633,-0.6333,-0.6336,-0.6343,-0.6256,-0.6336,-0.6336,-0.6335,-0.6335,-0.6335,0,-0.6454,-0.6444,-0.6448,-0.6442,-0.6446,-0.642,-0.6414,-0.6419,-0.6428,-0.642,-0.6422,-0.643,-0.6434,-0.6417,-0.6419,-0.6429,-0.6418,-0.6431,-0.6431,-0.643,-0.6357,-0.6351,-0.644,-0.644,-0.644,-0.644,-0.644,-0.644,-0.6501,-0.6521,-0.6506,-0.6523,-0.6513,-0.6522,-0.6521,-0.6518,-0.6512,-0.6521,-0.6525,-0.6512,-0.6501,-0.6502,-0.6506,-0.65,-0.6504,-0.6521,-0.6513,-0.6445,-0.6435,-0.6425,-0.642,-0.6522,-0.6522,-0.6585,-0.6586,-0.6586]},{"header":{"parameterUnit":"m.s-1","parameterCategory":1,"la1":30.2991,"la2":30.254,"lo1":-89.0895,"lo2":-89.0444,"dy":0.0017,"dx":0.0017,"nx":28,"ny":28,"refTime":"2024-03-18T03:00:00:Z","depth":0,"parameterNumber":3,"parameterNumberName":"V-component_of_WINDS"},"data":[0,0,0,0,0,0,0,0,0,0,0,0,0,0,0,0,0,0,0,0,0,0,0,0,0,0,0,0,0,0,0,0,0,0,0,0,0,0,0,0,0,0,0,0,0,0,0,0,0,0,0,0,0,0,0,0,0,0,-1.2641,-1.2641,0,-1.2675,-1.2675,-1.2676,-1.2661,-1.266,-1.2659,-1.2659,-1.2693,-1.2695,-1.2696,0,0,0,0,0,0,0,0,0,0,0,0,0,-1.2563,-1.2565,-1.2641,-1.2641,-1.2642,-1.2675,-1.2675,-1.2676,-1.2661,-1.266,-1.2659,-1.2658,-1.2692,-1.2694,-1.2696,0,0,0,0,0,0,0,0,0,0,0,0,0,-1.2597,-1.2565,-1.2641,-1.2639,-1.2639,-1.2675,-1.2675,-1.2676,-1.2661,-1.266,-1.2659,-1.2658,-1.2692,-1.2694,-1.2697,-1.2737,0,0,-1.2704,-1.2705,0,0,0,0,0,0,0,0,-1.2595,-1.26,-1.2638,-1.2639,-1.2639,-1.2663,-1.2661,-1.2696,-1.2662,-1.2653,-1.2659,-1.2657,-1.2684,-1.2687,-1.2696,-1.2739,-1.274,-1.2705,-1.2706,-1.2707,-1.2708,0,0,0,0,0,0,0,-1.2593,-1.2598,-1.2654,-1.2639,-1.2639,-1.2636,-1.2639,-1.2667,-1.2675,-1.2653,-1.2652,-1.2657,-1.2684,-1.2694,-1.2697,-1.2741,-1.2704,-1.2707,-1.2708,-1.2709,-1.282,-1.2821,0,0,0,0,0,0,-1.2591,-1.2597,-1.2653,-1.2655,-1.2614,-1.2638,-1.2642,-1.2656,-1.2674,-1.2676,-1.2658,-1.2656,-1.269,-1.2694,-1.2698,-1.2748,-1.2707,-1.271,-1.2711,-1.2819,-1.282,-1.2822,0,0,0,0,0,0,-1.2589,-1.2596,-1.2652,-1.2626,-1.2633,-1.2641,-1.2657,-1.2658,-1.2667,-1.2678,-1.2679,-1.2667,-1.2689,-1.2694,-1.2728,-1.2749,-1.2711,-1.2713,-1.2817,-1.2819,-1.2821,-1.2848,0,0,0,0,0,0,-1.2587,-1.2595,-1.2611,-1.2626,-1.2634,-1.2682,-1.2658,-1.2659,-1.2672,-1.267,-1.2686,-1.2688,-1.2688,-1.2724,-1.273,-1.2752,-1.2715,-1.2815,-1.2818,-1.282,-1.2845,-1.2851,-1.2856,0,0,0,0,0,-1.2584,-1.2616,-1.2612,-1.2619,-1.2654,-1.2683,-1.2687,-1.2688,-1.2674,-1.269,-1.2696,-1.2687,-1.2745,-1.2728,-1.2735,-1.2757,-1.2814,-1.2817,-1.282,-1.2843,-1.285,-1.2856,0,0,0,0,0,0,-1.2603,-1.2618,-1.2613,-1.2652,-1.2666,-1.268,-1.27,-1.2694,-1.2713,-1.271,-1.2709,-1.2713,-1.2749,-1.2756,-1.2736,-1.2798,-1.2777,-1.2782,-1.2793,-1.2799,-1.2804,-1.2803,-1.2717,0,0,0,0,0,-1.2611,-1.2634,-1.2646,-1.2679,-1.2686,-1.2692,-1.2705,-1.2704,-1.2719,-1.2725,-1.2734,-1.2749,-1.277,-1.2785,-1.2805,-1.2846,-1.285,-1.2865,-1.287,-1.2874,-1.2879,-1.2903,-1.291,-1.2832,-1.2832,-1.2832,0,0,-1.2629,-1.2641,-1.2655,-1.2683,-1.2694,-1.2718,-1.2697,-1.2723,-1.2741,-1.2728,-1.2762,-1.2769,-1.2785,-1.2823,-1.284,-1.283,-1.2901,-1.2878,-1.2881,-1.2884,-1.2907,-1.2914,-1.2921,-1.2835,-1.2834,-1.2834,0,0,-1.2675,-1.2685,-1.2714,-1.2726,-1.2743,-1.2747,-1.2754,-1.277,-1.2774,-1.2807,-1.2799,-1.282,-1.2857,-1.2869,-1.2881,-1.2932,-1.2925,-1.2938,-1.2966,-1.2989,-1.2995,-1.3001,-1.3021,-1.3028,-1.2942,-1.2942,-1.2942,0,-1.2695,-1.2731,-1.273,-1.2757,-1.277,-1.276,-1.2791,-1.2802,-1.2825,-1.2834,-1.2822,-1.287,-1.288,-1.2922,-1.2934,-1.2943,-1.2952,-1.2937,-1.2994,-1.3,-1.3005,-1.3024,-1.3032,-1.2944,-1.2944,-1.2944,-1.2944,0,-1.2756,-1.2781,-1.2803,-1.2826,-1.2841,-1.287,-1.2873,-1.2889,-1.2886,-1.2891,-1.2926,-1.2938,-1.2961,-1.297,-1.2968,-1.3012,-1.3006,-1.2994,-1.2974,-1.3014,-1.3033,-1.304,-1.2946,-1.2946,-1.2945,-1.2945,0,0,-1.2815,-1.2839,-1.2847,-1.2858,-1.2877,-1.2896,-1.2924,-1.2947,-1.2962,-1.2977,-1.3002,-1.3034,-1.3024,-1.3036,-1.3035,-1.3055,-1.3098,-1.3041,-1.3042,-1.3053,-1.315,-1.316,-1.3169,-1.3092,-1.3094,-1.3095,-1.3149,0,-1.2864,-1.2914,-1.2915,-1.2961,-1.2985,-1.2976,-1.3,-1.3015,-1.302,-1.3041,-1.3047,-1.307,-1.3054,-1.3062,-1.3081,-1.3088,-1.3117,-1.3084,-1.3116,-1.3118,-1.3115,-1.3178,-1.3189,-1.324,-1.3156,-1.3157,-1.3158,0,-1.2928,-1.2948,-1.2997,-1.3013,-1.3023,-1.3046,-1.3068,-1.3088,-1.3104,-1.3106,-1.3121,-1.3117,-1.3146,-1.3123,-1.3164,-1.3142,-1.3155,-1.316,-1.3162,-1.3167,-1.3142,-1.3187,-1.3256,-1.3265,-1.3169,-1.3168,-1.3167,0,-1.297,-1.3007,-1.3042,-1.3052,-1.3071,-1.3088,-1.3097,-1.3111,-1.3126,-1.3145,-1.3155,-1.3176,-1.3189,-1.3206,-1.3208,-1.3191,-1.325,-1.3227,-1.3255,-1.3255,-1.3269,-1.3269,-1.3344,-1.3274,-1.3273,-1.3273,-1.3273,0,-1.3026,-1.3057,-1.3062,-1.3083,-1.3118,-1.3118,-1.3152,-1.3159,-1.3173,-1.3196,-1.3188,-1.321,-1.321,-1.3233,-1.3234,-1.3269,-1.3274,-1.3278,-1.3279,-1.328,-1.328,-1.329,-1.3288,-1.3275,-1.3275,-1.3274,-1.3274,0,-1.3079,-1.3083,-1.3121,-1.3136,-1.3141,-1.3166,-1.318,-1.3201,-1.3205,-1.3235,-1.3242,-1.3249,-1.3275,-1.3278,-1.3308,-1.3309,-1.3352,-1.3348,-1.3347,-1.3348,-1.3376,-1.3374,-1.3462,-1.3474,-1.3394,-1.3394,-1.3395,0,-1.3115,-1.3139,-1.3158,-1.3173,-1.3183,-1.3208,-1.3223,-1.3223,-1.3239,-1.326,-1.3279,-1.3304,-1.3325,-1.3367,-1.3375,-1.3399,-1.3396,-1.3425,-1.34,-1.3401,-1.34,-1.3399,-1.3403,-1.3431,-1.3432,-1.3433,-1.3433,0,-1.3181,-1.3182,-1.3204,-1.3228,-1.3247,-1.3265,-1.3282,-1.3295,-1.3297,-1.3316,-1.3343,-1.3359,-1.3391,-1.3417,-1.344,-1.3449,-1.3443,-1.3441,-1.3449,-1.3452,-1.3452,-1.3455,-1.3364,-1.3439,-1.3439,-1.3438,-1.3438,-1.3438,-1.3228,-1.325,-1.3267,-1.3293,-1.3306,-1.3322,-1.3343,-1.3351,-1.3374,-1.34,-1.3398,-1.3429,-1.3445,-1.3476,-1.3486,-1.351,-1.3501,-1.3512,-1.3515,-1.3518,-1.3523,-1.3446,-1.3514,-1.3514,-1.3514,-1.3514,-1.3513,0,-1.3296,-1.3306,-1.333,-1.3355,-1.3375,-1.3366,-1.3385,-1.3403,-1.343,-1.3446,-1.3467,-1.3499,-1.3524,-1.3534,-1.3559,-1.3576,-1.3574,-1.3583,-1.3583,-1.3586,-1.3528,-1.352,-1.3585,-1.3585,-1.3585,-1.3585,-1.3585,-1.3585,-1.3333,-1.337,-1.3373,-1.3417,-1.3427,-1.3457,-1.3469,-1.3485,-1.3498,-1.3534,-1.3555,-1.3562,-1.3576,-1.3602,-1.3625,-1.3627,-1.3638,-1.3649,-1.365,-1.3597,-1.359,-1.3583,-1.3575,-1.365,-1.365,-1.3706,-1.3706,-1.3707]}]]